Location: Bushey
(51.6333°N, 0.3667°W)
Time: 19:13:57
(UTC+00:00)

FALCON 9 DEB - Pass Details

Date: 03 March 2021
Orbit: 366 x 384 km, 53.0° (Epoch: 17 April)

Event Time Altitude Azimuth Distance (km) Brightness Sun altitude
Rises 18:12:51 0° 266° (W) 2,292 9.9 -5.0°
Reaches altitude 10° 18:14:55 10° 269° (W) 1,436 7.7 -5.4°
Maximum altitude 18:18:08 70° 353° (N) 424 3.1 -5.9°
Drops below altitude 10° 18:21:19 10° 78° (ENE) 1,431 5.1 -6.4°
Enters shadow 18:21:38 - 79° (ENE) 1,557 5.3 -6.4°
